Home > Weather > Port Coquitlam > Past weeks

Flag for Canada Past Weather in Port Coquitlam, British Columbia, Canada — Yesterday and Last 2 Weeks

Now
60 °F

Cool.


Feels Like: 60 °F
Forecast: 60 / 81 °F
Wind: No wind

Location: P. Meadows Coastal Station

Current Time: Jul 25, 2016 at 5:00:09 AM

Latest Report: Jul 25, 2016 at 4:00 AM


Visibility: N/A

Pressure: 30.03 "Hg

Humidity: 91%

Dew Point: 58 °F

Location of Port CoquitlamLocation

Past Weather in Port Coquitlam — Graph

°F

Port Coquitlam Temperature Yesterday

Maximum temperature yesterday: 80 °F (at 6:00 PM)
Minimum temperature yesterday: 55 °F (at 6:00 AM)
Average temperature yesterday: 68 °F

High & Low Weather Summary for the Past Weeks

 TemperatureHumidityPressure
High83 °F (Jul 21, 4:00 PM)99% (Jul 17, 5:00 AM)30.26 "Hg (Jul 17, 5:00 AM)
Low54 °F (Jul 23, 6:00 AM)38% (Jul 21, 6:00 PM)29.90 "Hg (Jul 17, 5:00 PM)
Average65 °F72%30.08 "Hg
* Reported Jul 10 3:00 AM — Jul 25 3:00 AM, Port Coquitlam, Weather by CustomWeather, © 2016

Note: Actual official high and low records may vary slightly from our data, if they occured in-between our weather recording intervals... More about our weather records

Advertising

Port Coquitlam Weather History for the Previous 24 Hours

Scroll right to see more
 ConditionsComfort  
Time TempWeatherWind HumidityBarometerVisibility
3:00 AM
Mon, Jul 25
62 °FCool.1 mph86%30.02 "HgN/A
2:00 AM62 °FCool.1 mph86%30.02 "HgN/A
1:00 AM64 °FMild.1 mph76%30.01 "HgN/A
12:00 AM65 °FMild.2 mph80%30.02 "HgN/A
11:00 PM
Sun, Jul 24
66 °FMild.1 mph76%30.02 "HgN/A
10:00 PM67 °FMild.2 mph72%30.02 "HgN/A
9:00 PM72 °FMild.3 mph65%30.01 "HgN/A
8:00 PM76 °FMild.3 mph57%30.01 "HgN/A
7:00 PM79 °FWarm.2 mph55%30.01 "HgN/A
6:00 PM80 °FWarm.3 mph49%30.02 "HgN/A
5:00 PM79 °FWarm.3 mph47%30.04 "HgN/A
4:00 PM78 °FWarm.3 mph48%30.05 "HgN/A
3:00 PM78 °FWarm.2 mph52%30.06 "HgN/A
2:00 PM76 °FMild.2 mph53%30.08 "HgN/A
1:00 PM74 °FMild.5 mph54%30.10 "HgN/A
12:00 PM72 °FMild.5 mph58%30.11 "HgN/A
11:00 AM72 °FMild.2 mph58%30.12 "HgN/A
10:00 AM69 °FMild.3 mph65%30.13 "HgN/A
9:00 AM65 °FMild.1 mph72%30.14 "HgN/A
8:00 AM62 °FCool.1 mph83%30.14 "HgN/A
7:00 AM59 °FCool.1 mph89%30.14 "HgN/A
6:00 AM55 °FCool.No wind94%30.14 "HgN/A
5:00 AM56 °FCool.No wind93%30.15 "HgN/A
Weather by CustomWeather, © 2016

See weather overviewHow to use our weather pages